FW8050 Weather Reports


time (UTC)temp
C
wind
direction
speed
KPH
gust
KPH
rain 1hr
cm
rain 24hr
cm
rain mn
cm
humidity
%
barometer
mb
20211017151518 15 129 1.6 4.8 0.00 0.00 0.00 56 1035.4
20211017150519 13 169 1.6 4.8 0.00 0.00 0.00 60 1035.1
20211017145519 12 171 1.6 6.4 0.00 0.00 0.00 64 1036.2
20211017144517 12 193 1.6 3.2 0.00 0.00 0.00 65 1035.9
20211017143516 12 158 1.6 3.2 0.00 0.00 0.00 68 1035.4
20211017142519 11 101 1.6 6.4 0.00 0.00 0.00 69 1034.6
20211017141520 11 122 1.6 6.4 0.00 0.00 0.00 72 1033.6
20211017140519 10 122 1.6 3.2 0.00 0.00 0.00 74 1035.4
20211017135517 10 118 1.6 8.0 0.00 0.00 0.00 76 1034.7
20211017134517 10 123 1.6 4.8 0.00 0.00 0.00 77 1033.8
20211017133517 9 167 0.0 3.2 0.00 0.00 0.00 79 1032.8
20211017132517 8 146 0.0 3.2 0.00 0.00 0.00 79 1031.9
20211017131517 8 57 0.0 4.8 0.00 0.00 0.00 81 1030.8
20211017130517 8 53 0.0 1.6 0.00 0.00 0.00 82 1029.3
20211017125518 7 92 0.0 3.2 0.00 0.00 0.00 84 1027.8
20211017124517 7 174 0.0 1.6 0.00 0.00 0.00 87 1026.6
20211017123517 7 0.0 0.0 0.00 0.00 0.00 87 1026.0
20211017122518 7 219 0.0 1.6 0.00 0.00 0.00 87 1025.7
20211017121518 7 0.0 0.0 0.00 0.00 0.00 88 1025.3
20211017120519 7 0.0 0.0 0.00 0.00 0.00 88 1025.1
20211017115518 7 0.0 0.0 0.00 0.00 0.00 89 1025.0
20211017114518 7 238 0.0 0.0 0.00 0.00 0.00 88 1025.0
20211017113518 7 0.0 0.0 0.00 0.00 0.00 87 1025.0
20211017112518 7 0.0 0.0 0.00 0.00 0.00 85 1025.1
20211017111518 8 0.0 0.0 0.00 0.00 0.00 85 1025.2
20211017110518 8 0.0 0.0 0.00 0.00 0.00 84 1025.4
20211017105519 8 0.0 0.0 0.00 0.00 0.00 83 1025.4
20211017104516 8 0.0 0.0 0.00 0.00 0.00 83 1025.3
20211017103519 8 32 0.0 1.6 0.00 0.00 0.00 82 1025.3
20211017102519 8 110 0.0 1.6 0.00 0.00 0.00 82 1025.2
20211017101519 8 0.0 0.0 0.00 0.00 0.00 83 1025.2
20211017100516 8 334 0.0 1.6 0.00 0.00 0.00 82 1025.2
20211017095516 8 64 0.0 1.6 0.00 0.00 0.00 81 1025.3
20211017094517 8 0.0 0.0 0.00 0.00 0.00 82 1025.5
20211017093520 8 358 0.0 1.6 0.00 0.00 0.00 81 1025.4
20211017092520 8 0.0 0.0 0.00 0.00 0.00 81 1025.4
20211017091517 8 94 0.0 3.2 0.00 0.00 0.00 81 1025.4
20211017090518 8 0.0 0.0 0.00 0.00 0.00 81 1025.5
20211017085518 8 82 0.0 1.6 0.00 0.00 0.00 82 1025.2
20211017084518 8 0.0 0.0 0.00 0.00 0.00 82 1025.0
20211017083518 8 2 0.0 1.6 0.00 0.05 0.00 82 1025.1
20211017082518 8 0.0 0.0 0.00 0.10 0.00 82 1025.4
20211017081518 8 25 0.0 1.6 0.00 0.10 0.00 81 1025.7
20211017080518 9 0.0 0.0 0.00 0.10 0.00 81 1025.9
20211017075518 9 341 0.0 1.6 0.00 0.10 0.00 81 1025.9
20211017074518 9 0.0 0.0 0.00 0.10 0.00 81 1025.8
20211017073518 9 0.0 0.0 0.00 0.10 0.00 80 1025.7
20211017072519 9 0.0 0.0 0.00 0.13 0.00 81 1025.6
20211017071519 9 238 0.0 1.6 0.00 0.15 0.00 82 1025.4
20211017070519 8 0.0 0.0 0.00 0.15 0.00 80 1025.2
20211017065519 8 0.0 0.0 0.00 0.15 0.00 80 1025.0
20211017064519 8 0.0 0.0 0.00 0.18 0.00 81 1024.8
20211017063516 8 347 0.0 3.2 0.00 0.18 0.00 82 1024.5
20211017062520 8 0.0 0.0 0.00 0.20 0.00 82 1024.3
20211017061518 8 333 0.0 1.6 0.00 0.25 0.00 82 1024.1
20211017060520 8 0.0 0.0 0.00 0.28 0.00 82 1023.8
20211017055517 8 355 0.0 1.6 0.00 0.30 0.00 84 1023.6
20211017054517 8 0.0 0.0 0.00 0.51 0.00 83 1023.4
20211017053520 8 348 0.0 1.6 0.00 0.69 0.00 83 1023.0
20211017052520 8 0.0 0.0 0.00 0.89 0.00 83 1022.6
20211017051517 8 0.0 0.0 0.00 1.17 0.00 84 1022.2
20211017050518 8 12 0.0 1.6 0.00 1.30 0.00 85 1022.0
20211017045518 8 0.0 0.0 0.00 1.32 1.32 85 1021.6
20211017044517 8 0.0 0.0 0.00 1.32 1.32 84 1021.1
20211017043518 8 0.0 0.0 0.00 1.32 1.32 84 1020.6
20211017042518 8 0.0 0.0 0.00 1.32 1.32 85 1020.3
20211017041518 9 22 0.0 1.6 0.00 1.32 1.32 85 1020.4
20211017040519 9 0.0 0.0 0.00 1.32 1.32 84 1020.6
20211017035518 10 0.0 0.0 0.00 1.32 1.32 81 1020.7
20211017034519 10 0.0 0.0 0.00 1.32 1.32 81 1020.7
20211017033516 10 0.0 0.0 0.00 1.32 1.32 79 1020.8
20211017032519 10 0.0 0.0 0.00 1.32 1.32 79 1021.0
20211017031519 10 0.0 0.0 0.00 1.32 1.32 77 1021.2
20211017030519 10 0.0 0.0 0.00 1.32 1.32 77 1021.2
20211017025516 10 0.0 0.0 0.00 1.32 1.32 74 1020.9
20211017024517 10 0.0 0.0 0.00 1.32 1.32 75 1020.4
20211017023519 10 0.0 0.0 0.00 1.32 1.32 75 1020.0
20211017022520 10 0.0 0.0 0.00 1.35 1.32 76 1019.7
20211017021517 11 33 0.0 1.6 0.00 1.42 1.32 77 1019.3
20211017020517 11 0.0 0.0 0.00 1.45 1.32 74 1018.9
20211017015517 11 0.0 0.0 0.00 1.45 1.32 74 1018.5
20211017014521 11 0.0 0.0 0.00 1.45 1.32 74 1018.1
20211017013517 11 0.0 0.0 0.00 1.47 1.32 73 1017.8
20211017012518 11 0.0 0.0 0.00 1.50 1.32 73 1017.6
20211017011518 11 0.0 0.0 0.00 1.52 1.32 73 1017.4
20211017010518 11 0.0 0.0 0.00 1.78 1.32 70 1017.3
20211017005521 12 0.0 0.0 0.00 1.80 1.32 69 1017.0
20211017004518 12 0.0 0.0 0.00 1.80 1.32 68 1016.5
20211017003518 12 48 0.0 0.0 0.00 1.80 1.32 68 1016.1
20211017002518 12 61 0.0 1.6 0.00 1.80 1.32 67 1015.5
20211017001518 12 45 0.0 1.6 0.00 1.80 1.32 66 1015.0
20211017000519 12 35 0.0 1.6 0.00 1.80 1.32 67 1014.6
20211016235519 12 0.0 0.0 0.00 1.80 1.32 67 1014.5
20211016234519 13 0.0 0.0 0.00 1.80 1.32 65 1014.9
20211016233519 13 234 0.0 1.6 0.00 1.80 1.32 64 1015.3
20211016232519 14 270 0.0 0.0 0.00 1.80 1.32 62 1015.9
20211016231519 14 201 0.0 1.6 0.00 1.80 1.32 59 1016.5
20211016230516 15 355 0.0 3.2 0.00 1.80 1.32 55 1017.0
20211016225519 15 86 0.0 3.2 0.00 1.80 1.32 53 1017.6
20211016224520 15 202 0.0 1.6 0.00 1.80 1.32 51 1018.2
20211016223517 16 138 0.0 3.2 0.00 1.80 1.32 48 1018.4
20211016222517 16 142 1.6 4.8 0.00 1.80 1.32 48 1018.5
20211016221517 16 152 1.6 8.0 0.00 1.80 1.32 46 1018.6
20211016220518 16 163 1.6 8.0 0.00 1.80 1.32 44 1018.7
20211016215520 16 156 1.6 4.8 0.00 1.80 1.32 44 1018.5
20211016214518 16 153 1.6 8.0 0.00 1.80 1.32 43 1018.5
20211016213518 17 167 3.2 6.4 0.00 1.80 1.32 41 1018.4
20211016212518 17 163 1.6 8.0 0.00 1.80 1.32 44 1018.3
20211016211518 17 202 1.6 4.8 0.00 1.80 1.32 42 1018.2
20211016210520 17 173 1.6 4.8 0.00 1.80 1.32 41 1017.9
20211016205518 17 177 1.6 4.8 0.00 1.80 1.32 42 1017.7
20211016204518 17 191 1.6 4.8 0.00 1.80 1.32 42 1017.4
20211016203519 17 178 3.2 6.4 0.00 1.80 1.32 40 1016.8
20211016202518 17 159 3.2 8.0 0.00 1.80 1.32 39 1016.3
20211016201519 17 189 3.2 9.7 0.00 1.80 1.32 39 1015.9
20211016200519 17 178 3.2 9.7 0.00 1.80 1.32 39 1015.3
20211016195516 17 195 3.2 8.0 0.00 1.80 1.32 40 1014.7
20211016194519 17 190 1.6 6.4 0.00 1.80 1.32 39 1014.0
20211016193519 17 167 3.2 9.7 0.00 1.80 1.32 40 1012.9
20211016192519 17 184 1.6 11.3 0.00 1.80 1.32 41 1012.1
20211016191517 17 196 1.6 8.0 0.00 1.80 1.32 39 1012.0
20211016190517 17 167 1.6 6.4 0.00 1.80 1.32 39 1012.0
20211016185517 18 194 3.2 11.3 0.00 1.80 1.32 39 1013.9
20211016184520 18 183 1.6 8.0 0.00 1.80 1.32 39 1018.5
20211016183517 18 206 3.2 8.0 0.00 1.80 1.32 41 1024.7
20211016182517 19 145 1.6 6.4 0.00 1.80 1.32 39 1027.6
20211016181517 19 150 1.6 9.7 0.00 1.80 1.32 39 1029.3
20211016180517 19 178 1.6 12.9 0.00 1.80 1.32 41 1030.3
20211016175519 19 155 1.6 6.4 0.00 1.80 1.32 41 1030.5
20211016174519 18 172 3.2 9.7 0.00 1.80 1.32 41 1031.0
20211016173518 18 187 1.6 4.8 0.00 1.80 1.32 44 1030.1
20211016172518 18 158 3.2 9.7 0.00 1.80 1.32 43 1030.7
20211016171518 18 146 3.2 11.3 0.00 1.80 1.32 44 1031.3
20211016170518 18 178 3.2 11.3 0.00 1.80 1.32 45 1030.8
20211016165518 18 178 3.2 9.7 0.00 1.80 1.32 45 1031.4
20211016164519 17 182 3.2 8.0 0.00 1.80 1.32 46 1031.5
20211016163518 17 169 3.2 9.7 0.00 1.80 1.32 47 1032.3
20211016162519 17 180 3.2 11.3 0.00 1.80 1.32 48 1032.1
20211016161519 17 195 3.2 11.3 0.00 1.80 1.32 48 1032.3
20211016160516 16 191 3.2 8.0 0.00 1.80 1.32 50 1031.8
20211016155519 16 199 3.2 8.0 0.00 1.80 1.32 52 1032.3
20211016154519 16 190 3.2 8.0 0.00 1.80 1.32 54 1032.4
20211016153519 16 184 3.2 6.4 0.00 1.80 1.32 55 1031.8
20211016152516 16 162 1.6 9.7 0.00 1.80 1.32 57 1030.3